| time (UTC) | temp F | wind direction | speed MPH | gust MPH | rain 1hr in | rain 24hr in | rain mn in | humidity % | barometer mb |
| 20260507053104 | 64 | 0 | 0.0 | 3.0 | 0.00 | 0.00 | 0.00 | 48 | 1009.4 |
| 20260507051558 | 65 | 0 | 0.0 | 0.0 | 0.00 | 0.00 | 0.00 | 46 | 1009.2 |
| 20260507050059 | 67 | 243 | 0.0 | 7.0 | 0.00 | 0.00 | 0.00 | 43 | 1009.1 |
| 20260507044558 | 68 | 270 | 3.0 | 9.0 | 0.00 | 0.00 | 0.00 | 42 | 1009.2 |
| 20260507043053 | 69 | 0 | 0.0 | 8.0 | 0.00 | 0.00 | 0.00 | 41 | 1009.2 |
| 20260507041602 | 69 | 265 | 6.0 | 14.0 | 0.00 | 0.00 | 0.00 | 39 | 1009.1 |
| 20260507040055 | 71 | 241 | 6.0 | 11.0 | 0.00 | 0.00 | 0.00 | 40 | 1009.1 |
| 20260507034553 | 71 | 200 | 1.0 | 11.0 | 0.00 | 0.00 | 0.00 | 44 | 1008.8 |
| 20260507033056 | 71 | 216 | 2.0 | 9.0 | 0.00 | 0.00 | 0.00 | 46 | 1008.5 |
| 20260507031553 | 71 | 230 | 0.0 | 6.0 | 0.00 | 0.00 | 0.00 | 47 | 1008.5 |
| 20260507030053 | 72 | 0 | 3.0 | 8.0 | 0.00 | 0.00 | 0.00 | 46 | 1008.7 |
| 20260507024556 | 73 | 191 | 1.0 | 8.0 | 0.00 | 0.00 | 0.00 | 44 | 1008.7 |
| 20260507023056 | 74 | 175 | 2.0 | 10.0 | 0.00 | 0.00 | 0.00 | 44 | 1008.7 |
| 20260507021618 | 74 | 169 | 2.0 | 10.0 | 0.00 | 0.00 | 0.00 | 42 | 1008.9 |
| 20260507020112 | 75 | 144 | 2.0 | 6.0 | 0.00 | 0.00 | 0.00 | 41 | 1009.1 |
| 20260507014621 | 75 | 205 | 1.0 | 4.0 | 0.00 | 0.00 | 0.00 | 40 | 1009.1 |
| 20260507013053 | 75 | 0 | 1.0 | 7.0 | 0.00 | 0.00 | 0.00 | 39 | 1009.4 |
| 20260507011605 | 75 | 171 | 3.0 | 12.0 | 0.00 | 0.00 | 0.00 | 38 | 1009.5 |
| 20260507010054 | 75 | 178 | 4.0 | 9.0 | 0.00 | 0.00 | 0.00 | 38 | 1009.6 |
| 20260507004554 | 76 | 190 | 4.0 | 14.0 | 0.00 | 0.00 | 0.00 | 37 | 1009.6 |
| 20260507003057 | 76 | 224 | 3.0 | 9.0 | 0.00 | 0.00 | 0.00 | 37 | 1009.7 |
| 20260507001602 | 76 | 275 | 4.0 | 12.0 | 0.00 | 0.00 | 0.00 | 37 | 1009.7 |
| 20260507000121 | 76 | 258 | 3.0 | 14.0 | 0.00 | 0.00 | 0.00 | 38 | 1009.7 |
| 20260506234615 | 76 | 242 | 6.0 | 18.0 | 0.00 | 0.00 | 0.00 | 38 | 1009.8 |
| 20260506233056 | 77 | 227 | 4.0 | 11.0 | 0.00 | 0.00 | 0.00 | 37 | 1009.9 |
| 20260506231553 | 77 | 221 | 2.0 | 11.0 | 0.00 | 0.00 | 0.00 | 36 | 1010.0 |
| 20260506230103 | 77 | 274 | 5.0 | 13.0 | 0.00 | 0.00 | 0.00 | 35 | 1010.2 |
| 20260506224556 | 77 | 0 | 3.0 | 13.0 | 0.00 | 0.00 | 0.00 | 38 | 1010.3 |
| 20260506223053 | 77 | 240 | 7.0 | 14.0 | 0.00 | 0.00 | 0.00 | 40 | 1010.7 |
| 20260506221600 | 77 | 225 | 2.0 | 14.0 | 0.00 | 0.00 | 0.00 | 41 | 1010.5 |
| 20260506220056 | 78 | 234 | 6.0 | 14.0 | 0.00 | 0.00 | 0.00 | 39 | 1010.7 |
| 20260506214600 | 77 | 263 | 4.0 | 13.0 | 0.00 | 0.00 | 0.00 | 39 | 1010.8 |
| 20260506213059 | 77 | 290 | 1.0 | 9.0 | 0.00 | 0.00 | 0.00 | 43 | 1010.9 |
| 20260506211556 | 77 | 276 | 2.0 | 11.0 | 0.00 | 0.00 | 0.00 | 44 | 1011.0 |
| 20260506210055 | 76 | 0 | 0.0 | 8.0 | 0.00 | 0.00 | 0.00 | 46 | 1011.1 |
| 20260506204551 | 75 | 263 | 1.0 | 8.0 | 0.00 | 0.00 | 0.00 | 45 | 1011.5 |
| 20260506203052 | 75 | 276 | 5.0 | 11.0 | 0.00 | 0.00 | 0.00 | 44 | 1011.7 |
| 20260506201553 | 75 | 266 | 1.0 | 8.0 | 0.00 | 0.00 | 0.00 | 45 | 1011.8 |
| 20260506200051 | 74 | 252 | 3.0 | 11.0 | 0.00 | 0.00 | 0.00 | 47 | 1011.8 |
| 20260506194554 | 74 | 153 | 3.0 | 11.0 | 0.00 | 0.00 | 0.00 | 47 | 1011.8 |
| 20260506193055 | 73 | 0 | 5.0 | 12.0 | 0.00 | 0.00 | 0.00 | 46 | 1012.1 |
| 20260506191601 | 72 | 130 | 0.0 | 9.0 | 0.00 | 0.00 | 0.00 | 50 | 1012.3 |
| 20260506190054 | 72 | 238 | 2.0 | 9.0 | 0.00 | 0.00 | 0.00 | 48 | 1012.5 |
| 20260506184600 | 72 | 0 | 1.0 | 10.0 | 0.00 | 0.00 | 0.00 | 48 | 1012.5 |
| 20260506183105 | 71 | 0 | 1.0 | 11.0 | 0.00 | 0.00 | 0.00 | 49 | 1012.4 |
| 20260506181606 | 71 | 0 | 2.0 | 8.0 | 0.00 | 0.00 | 0.00 | 48 | 1012.6 |
| 20260506180052 | 70 | 208 | 3.0 | 9.0 | 0.00 | 0.00 | 0.00 | 50 | 1012.5 |
| 20260506174556 | 69 | 223 | 0.0 | 5.0 | 0.00 | 0.00 | 0.00 | 49 | 1012.6 |
| 20260506173126 | 69 | 0 | 1.0 | 6.0 | 0.00 | 0.00 | 0.00 | 50 | 1012.9 |
| 20260506171557 | 67 | 82 | 1.0 | 5.0 | 0.00 | 0.00 | 0.00 | 46 | 1013.0 |
| 20260506170107 | 66 | 0 | 1.0 | 8.0 | 0.00 | 0.00 | 0.00 | 49 | 1013.2 |
| 20260506164556 | 65 | 0 | 0.0 | 6.0 | 0.00 | 0.00 | 0.00 | 48 | 1013.3 |
| 20260506163059 | 64 | 150 | 3.0 | 6.0 | 0.00 | 0.00 | 0.00 | 47 | 1013.4 |
| 20260506161557 | 64 | 108 | 1.0 | 5.0 | 0.00 | 0.00 | 0.00 | 44 | 1013.3 |
| 20260506160058 | 63 | 0 | 0.0 | 4.0 | 0.00 | 0.00 | 0.00 | 45 | 1013.4 |
| 20260506154622 | 62 | 67 | 2.0 | 8.0 | 0.00 | 0.00 | 0.00 | 45 | 1013.3 |
| 20260506153054 | 61 | 105 | 1.0 | 4.0 | 0.00 | 0.00 | 0.00 | 47 | 1013.3 |
| 20260506151558 | 60 | 0 | 0.0 | 0.0 | 0.00 | 0.00 | 0.00 | 49 | 1013.5 |
| 20260506150055 | 58 | 0 | 0.0 | 0.0 | 0.00 | 0.00 | 0.00 | 52 | 1013.5 |
| 20260506144559 | 57 | 0 | 0.0 | 0.0 | 0.00 | 0.00 | 0.00 | 54 | 1013.5 |
| 20260506143052 | 55 | 0 | 0.0 | 0.0 | 0.00 | 0.00 | 0.00 | 58 | 1013.5 |
| 20260506141600 | 53 | 0 | 0.0 | 0.0 | 0.00 | 0.00 | 0.00 | 62 | 1013.5 |
| 20260506140054 | 52 | 0 | 0.0 | 0.0 | 0.00 | 0.00 | 0.00 | 65 | 1013.5 |
| 20260506134554 | 50 | 0 | 0.0 | 0.0 | 0.00 | 0.00 | 0.00 | 74 | 1013.4 |
| 20260506133109 | 47 | 0 | 0.0 | 0.0 | 0.00 | 0.00 | 0.00 | 79 | 1013.2 |
| 20260506131554 | 45 | 0 | 0.0 | 0.0 | 0.00 | 0.00 | 0.00 | 81 | 1013.1 |
| 20260506130119 | 44 | 0 | 0.0 | 0.0 | 0.00 | 0.00 | 0.00 | 81 | 1013.2 |
| 20260506124554 | 43 | 0 | 0.0 | 0.0 | 0.00 | 0.00 | 0.00 | 81 | 1012.9 |
| 20260506123053 | 43 | 0 | 0.0 | 0.0 | 0.00 | 0.00 | 0.00 | 81 | 1012.8 |
| 20260506121553 | 44 | 0 | 0.0 | 0.0 | 0.00 | 0.00 | 0.00 | 81 | 1012.6 |
| 20260506120057 | 44 | 0 | 0.0 | 0.0 | 0.00 | 0.00 | 0.00 | 80 | 1012.5 |
| 20260506114604 | 44 | 0 | 0.0 | 0.0 | 0.00 | 0.00 | 0.00 | 80 | 1012.4 |
| 20260506113056 | 44 | 0 | 0.0 | 0.0 | 0.00 | 0.00 | 0.00 | 80 | 1012.6 |
| 20260506111553 | 45 | 0 | 0.0 | 0.0 | 0.00 | 0.00 | 0.00 | 79 | 1012.4 |
| 20260506110057 | 45 | 0 | 0.0 | 0.0 | 0.00 | 0.00 | 0.00 | 78 | 1012.5 |
| 20260506104616 | 46 | 0 | 0.0 | 0.0 | 0.00 | 0.00 | 0.00 | 78 | 1012.5 |
| 20260506103053 | 46 | 0 | 0.0 | 0.0 | 0.00 | 0.00 | 0.00 | 77 | 1012.4 |
| 20260506101555 | 47 | 0 | 0.0 | 0.0 | 0.00 | 0.00 | 0.00 | 77 | 1012.4 |
| 20260506100056 | 47 | 0 | 0.0 | 0.0 | 0.00 | 0.00 | 0.00 | 77 | 1012.4 |
| 20260506094553 | 47 | 0 | 0.0 | 0.0 | 0.00 | 0.00 | 0.00 | 78 | 1012.4 |
| 20260506093054 | 47 | 0 | 0.0 | 0.0 | 0.00 | 0.00 | 0.00 | 77 | 1012.3 |
| 20260506091556 | 47 | 0 | 0.0 | 0.0 | 0.00 | 0.00 | 0.00 | 76 | 1012.5 |
| 20260506090052 | 48 | 0 | 0.0 | 0.0 | 0.00 | 0.00 | 0.00 | 75 | 1012.4 |
| 20260506084555 | 48 | 0 | 0.0 | 0.0 | 0.00 | 0.00 | 0.00 | 74 | 1012.4 |
| 20260506083053 | 49 | 0 | 0.0 | 0.0 | 0.00 | 0.00 | 0.00 | 72 | 1012.4 |
| 20260506081559 | 50 | 0 | 0.0 | 0.0 | 0.00 | 0.00 | 0.00 | 69 | 1012.3 |
| 20260506073053 | 52 | 0 | 0.0 | 0.0 | 0.00 | 0.00 | 0.00 | 65 | 1012.1 |
| 20260506071619 | 52 | 0 | 0.0 | 0.0 | 0.00 | 0.00 | 0.00 | 66 | 1012.0 |
| 20260506061609 | 53 | 0 | 0.0 | 0.0 | 0.00 | 0.00 | 0.00 | 61 | 1011.7 |
| 20260506060109 | 54 | 0 | 0.0 | 0.0 | 0.00 | 0.00 | 0.00 | 59 | 1011.7 |